Location: ?astrovice
(49.6513°N, 14.9287°E)
Time: 18:28:35
(UTC+00:00)

CZ-2C R/B - Pass Details

Date: 09 April 2020
Orbit: 785 x 870 km, 98.3° (Epoch: 25 May)

Event Time Altitude Azimuth Distance (km) Brightness Sun altitude
Rises 19:15:38 0° 16° (NNE) 3,290 6.0 -14.4°
Reaches altitude 10° 19:17:58 10° 19° (NNE) 2,356 5.2 -14.7°
Maximum altitude 19:23:09 69° 102° (ESE) 847 2.5 -15.4°
Drops below altitude 10° 19:28:20 10° 186° (S) 2,360 4.8 -16.1°
Sets 19:30:41 0° 189° (S) 3,294 5.5 -16.4°
